MAS324 WMKK-VTSP

Flight info

Callsign MAS324
Flight time N/A
Altitude 34000
Route BIKDU1D BIKDU Y501 RINBA Y502 DUBAX R325 URGAD URGAD1C
Aircraft B38M/M-SDE1FGHILORVWXY/HB1

Departure

Time 2026-05-07 13:15
Airport Kuala Lumpur International Airport (WMKK)

Arrival

Time N/A
Airport Phuket International Airport (VTSP)
Time Latitude Longitude Altitude Speed Heading
2026-05-07 12:45 2.75343 101.70763 53 ft 0 kts 324°
2026-05-07 13:01 2.75343 101.70764 58 ft 2 kts 324°
2026-05-07 13:01 2.75326 101.70771 52 ft 3 kts 16°
2026-05-07 13:01 2.75318 101.70768 53 ft 0 kts 46°
2026-05-07 13:03 2.75314 101.70764 50 ft 3 kts 46°
2026-05-07 13:03 2.75302 101.70751 52 ft 3 kts 28°
2026-05-07 13:04 2.75285 101.70749 51 ft 3 kts 324°
2026-05-07 13:04 2.75273 101.70762 50 ft 3 kts 303°
2026-05-07 13:04 2.75264 101.70776 52 ft 2 kts 329°
2026-05-07 13:04 2.75247 101.70780 54 ft 2 kts 30°
2026-05-07 13:05 2.75240 101.70775 50 ft 0 kts 60°
2026-05-07 13:05 2.75243 101.70780 50 ft 3 kts 58°
2026-05-07 13:06 2.75266 101.70816 53 ft 7 kts 58°
2026-05-07 13:06 2.75289 101.70848 54 ft 5 kts 55°
2026-05-07 13:06 2.75309 101.70877 55 ft 5 kts 55°
2026-05-07 13:06 2.75328 101.70902 55 ft 4 kts 54°
2026-05-07 13:07 2.75346 101.70928 58 ft 4 kts 53°
2026-05-07 13:07 2.75364 101.70951 55 ft 4 kts 55°
2026-05-07 13:07 2.75381 101.70976 58 ft 4 kts 55°
2026-05-07 13:07 2.75400 101.71004 53 ft 6 kts 56°
2026-05-07 13:08 2.75433 101.71052 55 ft 12 kts 57°
2026-05-07 13:08 2.75495 101.71143 56 ft 16 kts 55°
2026-05-07 13:08 2.75553 101.71232 53 ft 14 kts 59°
2026-05-07 13:08 2.75604 101.71306 57 ft 11 kts 60°
2026-05-07 13:09 2.75584 101.71365 58 ft 9 kts 141°
2026-05-07 13:09 2.75525 101.71404 56 ft 11 kts 145°
2026-05-07 13:09 2.75456 101.71452 51 ft 13 kts 145°
2026-05-07 13:09 2.75375 101.71507 55 ft 14 kts 146°
2026-05-07 13:10 2.75297 101.71559 58 ft 13 kts 146°
2026-05-07 13:10 2.75220 101.71609 58 ft 14 kts 146°
2026-05-07 13:10 2.75134 101.71667 54 ft 15 kts 146°
2026-05-07 13:10 2.75049 101.71725 56 ft 14 kts 145°
2026-05-07 13:11 2.74972 101.71776 55 ft 13 kts 146°
2026-05-07 13:11 2.74945 101.71840 55 ft 10 kts 74°
2026-05-07 13:11 2.74974 101.71889 55 ft 8 kts 56°
2026-05-07 13:11 2.75003 101.71928 54 ft 6 kts 50°
2026-05-07 13:12 2.75016 101.71948 54 ft 0 kts 56°
2026-05-07 13:12 2.75017 101.71948 54 ft 0 kts 56°
2026-05-07 13:12 2.75027 101.71963 46 ft 7 kts 56°
2026-05-07 13:12 2.75060 101.72008 58 ft 9 kts 53°
2026-05-07 13:13 2.75107 101.72019 56 ft 7 kts 340°
2026-05-07 13:13 2.75124 101.72009 55 ft 0 kts 325°
2026-05-07 13:13 2.75127 101.72007 54 ft 1 kts 325°
2026-05-07 13:13 2.75168 101.71980 57 ft 21 kts 327°
2026-05-07 13:14 2.75410 101.71818 54 ft 61 kts 326°
2026-05-07 13:14 2.75863 101.71515 58 ft 94 kts 326°
2026-05-07 13:14 2.76479 101.71102 50 ft 119 kts 326°
2026-05-07 13:14 2.77209 101.70613 60 ft 136 kts 326°
2026-05-07 13:15 2.78049 101.70052 59 ft 150 kts 326°
2026-05-07 13:15 2.78809 101.69522 215 ft 0 kts 175°
2026-05-07 13:15 2.78550 101.69708 668 ft 0 kts 175°
2026-05-07 13:15 2.77779 101.69017 1458 ft 213 kts 287°